Batavia, OH

7:19 AM EST on February 10, 2016 (GMT -0500)
Clermont County, Batavia

Weather History for KI69 - March, 2014

Change the Weather History Date:

Saturday, March 22, 2014

  Actual Average (KLUK) Record (KLUK)
Temperature  
Mean Temperature 49 °F -  
Max Temperature 59 °F 54 °F 82 °F (2012)
Min Temperature 39 °F 34 °F 12 °F (2006)
Degree Days  
Heating Degree Days 16    
Moisture  
Dew Point 31 °F    
Average Humidity 51    
Maximum Humidity 70    
Minimum Humidity 27    
Precipitation  
Precipitation 0.00 in - - ()
Sea Level Pressure  
Sea Level Pressure 30.02 in    
Wind  
Wind Speed 11 mph (NW)    
Max Wind Speed 22 mph    
Max Gust Speed 30 mph    
Visibility 10 miles    
Events      
Averages and records for this station are not official NWS values.
T = Trace of Precipitation, MM = Missing Value Source: NWS Daily Summary

Daily Weather History Graph

Daily Weather History Graph

Search for Another Location

Airport or City:

Trip Planner

Search our weather history database for the weather conditions in past years. The results will help you decide how hot, cold, wet, or windy it might be!

Date:

Astronomy

Mar. 22, 2014 Rise Set
Actual Time 7:37 AM EDT 7:50 PM EDT
Civil Twilight 7:10 AM EDT 8:17 PM EDT
Nautical Twilight 6:39 AM EDT 8:48 PM EDT
Astronomical Twilight 6:07 AM EDT 9:20 PM EDT
Moon 1:06 AM EDT (3/22) 11:21 AM EDT (3/22)
Length of Visible Light 13h 07m
Length of Day
12h 13m
Waning Gibbous, 65% of the Moon is Illuminated
Mar 22
Waning Gibbous
Mar 23
Last Quarter
Mar 30
New
Apr 7
First Quarter
Apr 15
Full

Hourly Weather History & Observations

Time (EDT) Temp. Windchill Dew Point Humidity Pressure Visibility Wind Dir Wind Speed Gust Speed Precip Events Conditions
12:14 AM 59.0 °F - 24.8 °F 27% 29.84 in 10.0 mi SW 12.7 mph 17.3 mph N/A   Clear
12:34 AM 59.0 °F - 24.8 °F 27% 29.83 in 10.0 mi SW 11.5 mph 17.3 mph N/A   Clear
12:54 AM 59.0 °F - 24.8 °F 27% 29.83 in 10.0 mi SW 9.2 mph 16.1 mph N/A   Clear
1:14 AM 57.2 °F - 24.8 °F 29% 29.83 in 10.0 mi SW 9.2 mph 16.1 mph N/A   Clear
1:34 AM 55.4 °F - 24.8 °F 31% 29.83 in 10.0 mi SW 10.4 mph 16.1 mph N/A   Clear
1:54 AM 55.4 °F - 24.8 °F 31% 29.83 in 10.0 mi SW 10.4 mph 16.1 mph N/A   Clear
2:14 AM 55.4 °F - 26.6 °F 33% 29.83 in 10.0 mi SW 11.5 mph - N/A   Clear
2:34 AM 55.4 °F - 26.6 °F 33% 29.83 in 10.0 mi SW 12.7 mph 17.3 mph N/A   Clear
2:54 AM 55.4 °F - 26.6 °F 33% 29.82 in 10.0 mi SW 13.8 mph 20.7 mph N/A   Mostly Cloudy
3:14 AM 57.2 °F - 28.4 °F 33% 29.83 in 10.0 mi WSW 15.0 mph 19.6 mph N/A   Overcast
3:34 AM 55.4 °F - 28.4 °F 36% 29.83 in 10.0 mi WSW 12.7 mph - N/A   Mostly Cloudy
3:54 AM 55.4 °F - 30.2 °F 38% 29.83 in 10.0 mi WSW 17.3 mph 23.0 mph N/A   Clear
4:14 AM 57.2 °F - 30.2 °F 36% 29.84 in 10.0 mi West 16.1 mph 23.0 mph N/A   Clear
4:34 AM 55.4 °F - 32.0 °F 41% 29.86 in 10.0 mi West 16.1 mph 24.2 mph N/A   Clear
4:54 AM 53.6 °F - 30.2 °F 41% 29.88 in 10.0 mi NW 21.9 mph 29.9 mph N/A   Clear
5:14 AM 53.6 °F - 28.4 °F 38% 29.89 in 10.0 mi NW 17.3 mph 26.5 mph N/A   Mostly Cloudy
5:34 AM 51.8 °F - 30.2 °F 44% 29.91 in 10.0 mi NNW 17.3 mph 25.3 mph N/A   Overcast
5:54 AM 50.0 °F - 32.0 °F 50% 29.92 in 10.0 mi NW 15.0 mph 20.7 mph N/A   Mostly Cloudy
6:14 AM 50.0 °F - 32.0 °F 50% 29.93 in 10.0 mi NW 11.5 mph 19.6 mph N/A   Mostly Cloudy
6:34 AM 50.0 °F - 32.0 °F 50% 29.94 in 10.0 mi NW 11.5 mph 20.7 mph N/A   Mostly Cloudy
6:54 AM 48.2 °F - 32.0 °F 54% 29.95 in 10.0 mi NW 12.7 mph - N/A   Scattered Clouds
7:14 AM 46.4 °F 41.1 °F 32.0 °F 57% 29.96 in 10.0 mi NW 11.5 mph - N/A   Clear
7:34 AM 46.4 °F 41.1 °F 32.0 °F 57% 29.97 in 10.0 mi NW 11.5 mph 16.1 mph N/A   Clear
7:54 AM 46.4 °F 42.4 °F 32.0 °F 57% 29.98 in 10.0 mi NW 8.1 mph - N/A   Clear
8:14 AM 46.4 °F 41.1 °F 33.8 °F 62% 29.99 in 10.0 mi NW 11.5 mph - N/A   Clear
8:34 AM 46.4 °F 41.9 °F 33.8 °F 62% 30.00 in 10.0 mi NNW 9.2 mph - N/A   Clear
8:54 AM 46.4 °F 40.7 °F 33.8 °F 62% 30.02 in 10.0 mi NW 12.7 mph 18.4 mph N/A   Clear
9:14 AM 44.6 °F 38.8 °F 33.8 °F 66% 30.03 in 10.0 mi NNW 11.5 mph 20.7 mph N/A   Clear
9:34 AM 44.6 °F 38.1 °F 33.8 °F 66% 30.04 in 10.0 mi NW 13.8 mph - N/A   Mostly Cloudy
9:54 AM 44.6 °F 39.7 °F 33.8 °F 66% 30.05 in 10.0 mi NNW 9.2 mph - N/A   Overcast
10:14 AM 46.4 °F 41.5 °F 33.8 °F 62% 30.06 in 10.0 mi WNW 10.4 mph 16.1 mph N/A   Mostly Cloudy
10:34 AM 46.4 °F 41.1 °F 33.8 °F 62% 30.07 in 10.0 mi NNW 11.5 mph - N/A   Mostly Cloudy
10:54 AM 46.4 °F 44.3 °F 32.0 °F 57% 30.08 in 10.0 mi NNW 4.6 mph - N/A   Overcast
11:14 AM 46.4 °F 42.9 °F 32.0 °F 57% 30.08 in 10.0 mi North 6.9 mph - N/A   Overcast
11:34 AM 46.4 °F 41.9 °F 32.0 °F 57% 30.08 in 10.0 mi North 9.2 mph - N/A   Overcast
11:54 AM 46.4 °F 42.4 °F 32.0 °F 57% 30.09 in 10.0 mi NW 8.1 mph - N/A   Overcast
12:14 PM 46.4 °F 43.5 °F 32.0 °F 57% 30.09 in 10.0 mi North 5.8 mph - N/A   Overcast
12:34 PM 48.2 °F - 32.0 °F 54% 30.10 in 10.0 mi WNW 6.9 mph - N/A   Overcast
12:54 PM 48.2 °F - 32.0 °F 54% 30.09 in 10.0 mi NW 6.9 mph - N/A   Mostly Cloudy
1:14 PM 50.0 °F - 32.0 °F 50% 30.09 in 10.0 mi NW 3.5 mph - N/A   Mostly Cloudy
1:34 PM 50.0 °F - 32.0 °F 50% 30.09 in 10.0 mi North 8.1 mph - N/A   Scattered Clouds
1:54 PM 50.0 °F - 32.0 °F 50% 30.09 in 10.0 mi NNE 3.5 mph - N/A   Scattered Clouds
2:14 PM 50.0 °F - 32.0 °F 50% 30.10 in 10.0 mi NW 5.8 mph - N/A   Scattered Clouds
2:34 PM 50.0 °F - 32.0 °F 50% 30.09 in 10.0 mi Calm Calm - N/A   Scattered Clouds
2:54 PM 51.8 °F - 32.0 °F 47% 30.08 in 10.0 mi North 9.2 mph - N/A   Scattered Clouds
3:14 PM 51.8 °F - 32.0 °F 47% 30.08 in 10.0 mi WNW 9.2 mph - N/A   Scattered Clouds
3:34 PM 51.8 °F - 32.0 °F 47% 30.08 in 10.0 mi NW 13.8 mph 18.4 mph N/A   Scattered Clouds
3:54 PM 51.8 °F - 32.0 °F 47% 30.08 in 10.0 mi NW 10.4 mph - N/A   Scattered Clouds
4:14 PM 51.8 °F - 32.0 °F 47% 30.07 in 10.0 mi NW 10.4 mph - N/A   Scattered Clouds
4:34 PM 51.8 °F - 32.0 °F 47% 30.07 in 10.0 mi NNW 11.5 mph - N/A   Scattered Clouds
4:54 PM 51.8 °F - 32.0 °F 47% 30.07 in 10.0 mi North 8.1 mph - N/A   Scattered Clouds
5:14 PM 51.8 °F - 32.0 °F 47% 30.08 in 10.0 mi North 11.5 mph - N/A   Clear
5:34 PM 51.8 °F - 32.0 °F 47% 30.08 in 10.0 mi NNW 10.4 mph - N/A   Scattered Clouds
5:54 PM 51.8 °F - 32.0 °F 47% 30.09 in 10.0 mi North 8.1 mph 16.1 mph N/A   Scattered Clouds
6:14 PM 51.8 °F - 32.0 °F 47% 30.09 in 10.0 mi NNW 12.7 mph - N/A   Scattered Clouds
6:34 PM 50.0 °F - 32.0 °F 50% 30.10 in 10.0 mi NNW 11.5 mph 16.1 mph N/A   Scattered Clouds
6:54 PM 46.4 °F 40.7 °F 32.0 °F 57% 30.11 in 10.0 mi North 12.7 mph - N/A   Clear
7:14 PM 46.4 °F 41.1 °F 32.0 °F 57% 30.12 in 10.0 mi North 11.5 mph - N/A   Clear
7:34 PM 44.6 °F 39.7 °F 32.0 °F 61% 30.13 in 10.0 mi North 9.2 mph 16.1 mph N/A   Clear
7:54 PM 44.6 °F 39.2 °F 30.2 °F 57% 30.13 in 10.0 mi North 10.4 mph - N/A   Clear
8:14 PM 42.8 °F 37.5 °F 30.2 °F 61% 30.14 in 10.0 mi North 9.2 mph - N/A   Clear
8:34 PM 42.8 °F 38.6 °F 30.2 °F 61% 30.15 in 10.0 mi North 6.9 mph - N/A   Clear
8:54 PM 42.8 °F 38.0 °F 32.0 °F 66% 30.16 in 10.0 mi North 8.1 mph - N/A   Clear
9:14 PM 41.0 °F 37.1 °F 32.0 °F 70% 30.17 in 10.0 mi North 5.8 mph - N/A   Clear
9:34 PM 41.0 °F 37.1 °F 30.2 °F 65% 30.17 in 10.0 mi NNE 5.8 mph - N/A   Clear
9:54 PM 41.0 °F 38.0 °F 30.2 °F 65% 30.16 in 10.0 mi NNE 4.6 mph - N/A   Clear
10:14 PM 39.2 °F 35.9 °F 30.2 °F 70% 30.16 in 10.0 mi NNE 4.6 mph - N/A   Clear
10:34 PM 39.2 °F 35.0 °F 30.2 °F 70% 30.17 in 10.0 mi North 5.8 mph - N/A   Clear
10:54 PM 41.0 °F 37.1 °F 30.2 °F 65% 30.18 in 10.0 mi North 5.8 mph - N/A   Clear
11:14 PM 39.2 °F 35.9 °F 30.2 °F 70% 30.18 in 10.0 mi NNE 4.6 mph - N/A   Clear
11:34 PM 39.2 °F 37.0 °F 28.4 °F 65% 30.18 in 10.0 mi NNE 3.5 mph - N/A   Clear
11:54 PM 39.2 °F 37.0 °F 28.4 °F 65% 30.19 in 10.0 mi North 3.5 mph - N/A   Clear